Weather History for KPSN - February, 2014

Change the Weather History Date:

Sunday, February 9, 2014

  Actual Average (KTYR) Record (KTYR)
Temperature  
Mean Temperature 52 °F 49 °F  
Max Temperature 62 °F 59 °F 84 °F (1954)
Min Temperature 41 °F 39 °F 12 °F (1933)
Degree Days  
Heating Degree Days 14 16  
Month to date heating degree days 150  
Since 1 July heating degree days 1628  
Cooling Degree Days 0 0  
Month to date cooling degree days 0  
Year to date cooling degree days 4  
Growing Degree Days 2 (Base 50)    
Moisture  
Dew Point 42 °F    
Average Humidity 76    
Maximum Humidity 92    
Minimum Humidity 50    
Precipitation  
Precipitation 0.00 in 0.13 in 1.45 in (1950)
Month to date precipitation 1.13  
Year to date precipitation 4.19  
Snow  
Snow 0.00 in - - ()
Month to date snowfall  
Since 1 July snowfall  
Snow Depth -    
Sea Level Pressure  
Sea Level Pressure 30.08 in    
Wind  
Wind Speed 6 mph (SSE)    
Max Wind Speed 15 mph    
Max Gust Speed 17 mph    
Visibility 7 miles    
Events      
T = Trace of Precipitation, MM = Missing Value Source: NWS Daily Summary

Daily Weather History Graph

Daily Weather History Graph

Search for Another Location

Airport or City:

Trip Planner

Search our weather history database for the weather conditions in past years. The results will help you decide how hot, cold, wet, or windy it might be!

Date:

Astronomy

Feb. 09, 2014 Rise Set
Actual Time 7:10 AM CST 6:04 PM CST
Civil Twilight 6:44 AM CST 6:29 PM CST
Nautical Twilight 6:16 AM CST 6:58 PM CST
Astronomical Twilight 5:47 AM CST 7:26 PM CST
Moon 1:51 PM CST (2/9) 3:09 AM CST (2/9)
Length of Visible Light 11h 44m
Length of Day
10h 54m
Waxing Gibbous, 77% of the Moon is Illuminated
Feb 9
Waxing Gibbous
Feb 14
Full
Feb 22
Last Quarter
Mar 1
New
Mar 8
First Quarter

Hourly Weather History & Observations

Time (CST) Temp. Windchill Dew Point Humidity Pressure Visibility Wind Dir Wind Speed Gust Speed Precip Events Conditions
12:15 AM 41.5 °F 38.6 °F 38.7 °F 89% 30.11 in 5.0 mi SSE 4.6 mph - N/A   Clear
12:35 AM 42.1 °F 36.6 °F 39.4 °F 90% 30.10 in 5.0 mi SSE 9.2 mph - N/A   Mostly Cloudy
12:55 AM 43.0 °F 36.4 °F 40.3 °F 90% 30.11 in 3.0 mi South 12.7 mph 17.3 mph N/A   Overcast
1:15 AM 42.8 °F 35.4 °F 40.1 °F 90% 30.11 in 2.5 mi South 15.0 mph - N/A   Overcast
1:35 AM 42.3 °F 36.8 °F 39.6 °F 90% 30.10 in 1.0 mi South 9.2 mph - N/A   Overcast
1:55 AM 42.3 °F 37.3 °F 39.7 °F 91% 30.10 in 1.0 mi South 8.1 mph 16.1 mph N/A   Overcast
2:15 AM 42.3 °F 37.3 °F 39.7 °F 91% 30.10 in 1.5 mi South 8.1 mph - N/A   Overcast
2:35 AM 42.3 °F 39.4 °F 39.7 °F 91% 30.10 in 1.8 mi South 4.6 mph - N/A   Overcast
2:55 AM 42.3 °F 38.6 °F 40.1 °F 92% 30.09 in 2.5 mi South 5.8 mph - N/A   Overcast
3:15 AM 42.4 °F 37.5 °F 40.1 °F 91% 30.09 in 3.0 mi South 8.1 mph - N/A   Overcast
3:35 AM 42.8 °F 40.1 °F 40.1 °F 90% 30.09 in 3.0 mi South 4.6 mph - N/A   Overcast
3:55 AM 42.8 °F 40.1 °F 40.1 °F 90% 30.08 in 4.0 mi South 4.6 mph - N/A   Overcast
4:15 AM 42.8 °F 39.3 °F 40.1 °F 90% 30.08 in 4.0 mi South 5.8 mph - N/A   Overcast
4:35 AM 42.8 °F 40.1 °F 40.1 °F 90% 30.08 in 5.0 mi South 4.6 mph - N/A   Overcast
4:55 AM 43.0 °F 41.3 °F 40.1 °F 90% 30.08 in 5.0 mi South 3.5 mph - N/A   Overcast
5:15 AM 43.0 °F - 40.1 °F 90% 30.08 in 5.0 mi Calm Calm - N/A   Overcast
5:35 AM 43.0 °F 41.3 °F 39.7 °F 88% 30.08 in 5.0 mi SSE 3.5 mph - N/A   Overcast
5:55 AM 43.0 °F 39.5 °F 39.7 °F 88% 30.08 in 5.0 mi South 5.8 mph - N/A   Overcast
6:15 AM 43.0 °F 41.3 °F 39.6 °F 88% 30.09 in 5.0 mi South 3.5 mph - N/A   Overcast
6:35 AM 43.0 °F 40.3 °F 39.6 °F 88% 30.10 in 5.0 mi South 4.6 mph - N/A   Overcast
6:55 AM 43.2 °F 40.5 °F 39.6 °F 87% 30.10 in 5.0 mi South 4.6 mph - N/A   Overcast
7:15 AM 43.2 °F 40.5 °F 39.6 °F 87% 30.10 in 5.0 mi South 4.6 mph - N/A   Overcast
7:35 AM 43.0 °F 40.3 °F 39.4 °F 87% 30.10 in 5.0 mi South 4.6 mph - N/A   Overcast
7:55 AM 43.2 °F 41.5 °F 39.6 °F 87% 30.10 in 4.0 mi South 3.5 mph - N/A   Overcast
8:15 AM 43.2 °F 41.5 °F 39.6 °F 87% 30.11 in 4.0 mi South 3.5 mph - N/A   Overcast
8:35 AM 43.3 °F - 39.6 °F 87% 30.12 in 4.0 mi Calm Calm - N/A   Overcast
8:55 AM 43.7 °F 42.1 °F 39.7 °F 86% 30.14 in 4.0 mi SE 3.5 mph - N/A   Overcast
9:15 AM 43.7 °F 41.1 °F 39.6 °F 85% 30.13 in 4.0 mi SSE 4.6 mph - N/A   Overcast
9:35 AM 44.2 °F 42.7 °F 39.9 °F 85% 30.13 in 4.0 mi SE 3.5 mph - N/A   Overcast
9:55 AM 44.6 °F 42.2 °F 40.1 °F 84% 30.11 in 5.0 mi SSE 4.6 mph - N/A   Haze
10:15 AM 45.1 °F 40.8 °F 40.3 °F 83% 30.11 in 5.0 mi SSE 8.1 mph - N/A   Haze
10:35 AM 45.5 °F 41.3 °F 40.5 °F 83% 30.12 in 5.0 mi South 8.1 mph - N/A   Haze
10:55 AM 46.0 °F 44.8 °F 40.3 °F 80% 30.12 in 5.0 mi SE 3.5 mph - N/A   Haze
11:15 AM 46.4 °F 43.5 °F 40.5 °F 80% 30.12 in 5.0 mi SE 5.8 mph - N/A   Haze
11:35 AM 47.1 °F - 40.8 °F 79% 30.13 in 7.0 mi South 3.5 mph - N/A   Overcast
11:55 AM 48.9 °F - 41.0 °F 74% 30.13 in 7.0 mi Calm Calm - N/A   Overcast
12:15 PM 50.0 °F - 40.8 °F 71% 30.13 in 10.0 mi Calm Calm - N/A   Overcast
12:35 PM 51.8 °F - 41.4 °F 68% 30.11 in 10.0 mi East 5.8 mph - N/A   Scattered Clouds
12:55 PM 52.7 °F - 41.5 °F 66% 30.08 in 10.0 mi East 5.8 mph - N/A   Clear
1:15 PM 55.4 °F - 42.1 °F 61% 30.07 in 10.0 mi SSE 4.6 mph - N/A   Clear
1:35 PM 56.5 °F - 42.3 °F 59% 30.06 in 10.0 mi SSE 6.9 mph - N/A   Clear
1:55 PM 58.1 °F - 42.3 °F 56% 30.04 in 10.0 mi SE 5.8 mph - N/A   Clear
2:15 PM 59.5 °F - 42.8 °F 54% 30.03 in 10.0 mi ESE 8.1 mph - N/A   Clear
2:35 PM 60.6 °F - 43.9 °F 54% 30.01 in 10.0 mi SE 6.9 mph - N/A   Clear
2:55 PM 60.8 °F - 43.3 °F 53% 30.01 in 10.0 mi SE 5.8 mph - N/A   Clear
3:15 PM 62.2 °F - 43.7 °F 51% 30.00 in 10.0 mi South 8.1 mph - N/A   Clear
3:35 PM 62.2 °F - 43.5 °F 50% 30.01 in 10.0 mi SSW 4.6 mph - N/A   Clear
3:55 PM 62.6 °F - 44.1 °F 51% 30.01 in 10.0 mi WSW 4.6 mph - N/A   Clear
4:15 PM 62.6 °F - 44.1 °F 51% 30.01 in 10.0 mi South 3.5 mph - N/A   Clear
4:35 PM 62.6 °F - 43.9 °F 50% 30.01 in 10.0 mi SW 4.6 mph - N/A   Clear
4:55 PM 62.1 °F - 44.1 °F 52% 30.02 in 10.0 mi Calm Calm - N/A   Clear
5:15 PM 62.1 °F - 44.6 °F 53% 30.03 in 10.0 mi Calm Calm - N/A   Clear
5:35 PM 62.6 °F - 44.6 °F 52% 30.03 in 10.0 mi Calm Calm - N/A   Clear
5:55 PM 61.3 °F - 45.3 °F 56% 30.03 in 10.0 mi Calm Calm - N/A   Clear
6:15 PM 58.1 °F - 46.6 °F 65% 30.03 in 10.0 mi Calm Calm - N/A   Clear
6:35 PM 56.7 °F - 46.4 °F 69% 30.04 in 10.0 mi Calm Calm - N/A   Clear
6:55 PM 56.5 °F - 46.2 °F 68% 30.05 in 10.0 mi Calm Calm - N/A   Clear
7:15 PM 55.4 °F - 46.6 °F 72% 30.05 in 10.0 mi ENE 4.6 mph - N/A   Clear
7:35 PM 54.9 °F - 45.5 °F 71% 30.06 in 10.0 mi NNE 5.8 mph - N/A   Clear
7:55 PM 54.5 °F - 45.0 °F 70% 30.06 in 10.0 mi NNE 4.6 mph - N/A   Scattered Clouds
8:15 PM 53.8 °F - 44.6 °F 71% 30.06 in 10.0 mi NNE 6.9 mph - N/A   Scattered Clouds
8:35 PM 53.6 °F - 44.6 °F 72% 30.07 in 10.0 mi NNE 9.2 mph - N/A   Mostly Cloudy
8:55 PM 53.6 °F - 44.6 °F 72% 30.08 in 10.0 mi NNE 9.2 mph - N/A   Overcast
9:15 PM 52.7 °F - 44.6 °F 74% 30.07 in 10.0 mi NE 9.2 mph - N/A   Overcast
9:35 PM 51.8 °F - 44.1 °F 75% 30.08 in 7.0 mi NE 9.2 mph - N/A   Overcast
9:55 PM 50.9 °F - 43.7 °F 76% 30.08 in 7.0 mi NNE 10.4 mph - N/A   Overcast
10:15 PM 50.4 °F - 43.7 °F 78% 30.08 in 7.0 mi NNE 10.4 mph - N/A   Overcast
10:35 PM 50.0 °F - 43.7 °F 79% 30.09 in 5.0 mi NNE 9.2 mph 17.3 mph N/A   Haze
10:55 PM 49.6 °F - 43.3 °F 79% 30.09 in 5.0 mi NNE 9.2 mph - N/A   Haze
11:15 PM 49.5 °F - 43.3 °F 79% 30.09 in 5.0 mi NE 8.1 mph - N/A   Haze
11:35 PM 49.3 °F - 43.3 °F 80% 30.09 in 5.0 mi NE 8.1 mph - N/A   Haze
11:55 PM 49.1 °F - 43.2 °F 80% 30.09 in 5.0 mi NE 4.6 mph - N/A   Haze